Regional Weather Roundup
Issued by NWS

Home | Current Version | Previous Version | Graphics & Text | Print | Product List | Glossary On
Versions: 1 2 3 4 5 6 7 8 9 10 11 12 13 14 15 16 17 18 19 20 21 22 23 24 25 26 27 28 29 30 31 32 33 34 35 36 37 38 39 40 41 42 43 44 45 46 47 48 49 50
000
ASUS43 KBIS 050510
RWRND

NORTH DAKOTA REGIONAL WEATHER ROUNDUP
NATIONAL WEATHER SERVICE BISMARCK ND
1100 PM CST SUN DEC 04 2016

NOTE: "FAIR" INDICATES FEW OR NO CLOUDS BELOW 12,000 FEET WITH NO
SIGNIFICANT WEATHER AND/OR OBSTRUCTIONS TO VISIBILITY.


NDZ001>003-009>011-017-050600-
NORTHWEST NORTH DAKOTA

CITY           SKY/WX    TMP DP  RH WIND       PRES   REMARKS
WILLISTON      CLOUDY    26  21  81 CALM      29.51F
MINOT          CLOUDY    17  14  88 E3        29.58F
MINOT AFB      PTCLDY    12   9  88 E2        29.59S FOG
$$

NDZ018>021-031>035-040>046-050600-
SOUTHWEST NORTH DAKOTA

CITY           SKY/WX    TMP DP  RH WIND       PRES   REMARKS
BISMARCK       CLOUDY    16  15  96 NE8       29.63F WCI   5
DICKINSON      CLOUDY    29  22  75 S9        29.51F
GARRISON         N/A     21  19  92 CALM      29.59S
HETTINGER ARPT MOCLDY    26  20  77 CALM      29.56S
$$

NDZ004>008-012>016-024-026-027-054-050600-
NORTHEAST NORTH DAKOTA

CITY           SKY/WX    TMP DP  RH WIND       PRES   REMARKS
GRAND FORKS    CLOUDY    29  25  85 W12       29.68R WCI  19
GRND FRKS AFB  CLOUDY    27  24  88 NW8       29.68R WCI  19
DEVILS LAKE    FOG       23  22  96 W3        29.65S VSB 1/2
$$

NDZ022-023-025-028>030-036>039-047>053-050600-
SOUTHEAST NORTH DAKOTA

CITY           SKY/WX    TMP DP  RH WIND       PRES   REMARKS
FARGO          CLEAR     27  23  85 W8        29.69S WCI  19
JAMESTOWN      PTCLDY    20  17  88 S6        29.66R WCI  12
$$





USA.gov is the U.S. government's official web portal to all federal, state and local government web resources and services.